Theta_e
310 310 311 311 311 311 311 311 310 309 308 308 308 308 308 308 308 307 306 306 305 305 304 303 302 300 299 298 298 297 296 294 293 293 292 292 292 292 293 293 293 293 293 293 294 293 294 293 292 291 290 290 290 290 289 289 288 288 288 287 287 287 287 286 286 287 288 287 286 286 285 284 285 286 286 286 286 286 286 286 286 287 287 288 288
311 311 311 311 311 311 311 310 309 309 308 307 307 307 308 308 307 307 306 306 305 305 304 303 302 300 298 298 297 297 296 295 294 293 292 292 292 292 292 293 293 293 293 293 293 293 293 293 292 291 290 290 290 289 289 288 288 288 287 287 287 287 287 286 286 287 287 287 287 287 286 285 285 285 285 286 286 286 286 286 286 287 287 287 287
312 312 311 310 310 310 309 309 308 308 307 307 307 307 307 307 307 307 307 306 305 305 304 303 302 300 298 297 297 296 296 295 294 293 292 292 292 292 292 292 293 293 293 293 293 293 293 292 292 291 290 290 289 289 289 288 288 287 287 287 287 287 287 286 286 286 287 287 286 287 286 285 285 285 285 285 285 285 285 286 287 287 287 287 287
311 311 311 311 310 310 309 308 307 307 307 307 307 308 307 307 307 307 306 306 305 305 304 303 301 300 298 297 297 296 296 295 294 293 292 292 292 292 292 292 292 293 293 293 293 293 293 292 292 291 290 289 289 289 288 288 288 287 287 287 287 287 287 286 286 286 286 286 287 286 286 286 285 285 285 285 285 285 286 286 286 286 286 286 286
310 310 310 310 310 310 310 309 308 307 307 307 308 308 307 307 306 306 306 305 305 305 304 303 301 300 299 298 297 296 296 295 294 293 293 292 292 291 292 292 292 292 292 292 292 292 292 292 291 290 290 289 289 289 288 288 287 287 287 287 287 287 287 286 286 286 286 286 286 286 286 286 285 285 284 284 285 285 286 286 286 286 286 285 285
309 309 308 309 309 309 309 309 308 308 308 308 308 307 307 306 305 305 305 305 305 304 303 303 302 301 300 298 297 296 295 295 294 293 293 292 292 291 291 291 292 292 292 292 292 292 292 291 290 290 289 289 289 288 288 287 287 287 287 287 287 287 287 286 286 285 285 286 286 286 286 285 285 285 284 284 284 285 285 285 285 285 285 284 284
308 308 308 308 308 308 308 309 308 308 308 308 307 306 305 304 304 304 303 303 303 303 303 303 302 301 300 298 297 296 295 295 294 293 293 292 292 291 291 291 291 291 291 291 291 291 291 291 290 289 289 289 288 288 287 287 287 287 287 287 287 286 286 286 285 285 285 285 285 285 285 285 285 285 284 283 283 283 283 284 284 284 283 283 283
308 309 308 307 307 307 307 308 308 307 307 306 306 305 303 302 302 302 302 302 302 302 302 302 301 299 298 297 297 296 295 295 294 293 292 292 291 291 291 291 291 291 291 291 291 291 291 290 289 289 288 288 288 287 287 287 287 287 287 287 286 286 286 285 286 286 285 285 285 285 285 285 285 285 284 283 283 282 281 282 282 282 281 281 280
308 308 307 307 307 307 307 307 307 306 305 305 305 304 303 302 301 302 302 301 300 299 299 299 298 297 297 296 295 295 295 295 294 293 293 292 291 291 290 290 291 291 290 290 290 290 290 289 289 288 288 287 287 287 287 287 287 287 286 286 286 286 286 286 286 285 285 285 285 285 285 285 285 285 284 283 281 280 280 280 280 281 281 281 280
307 307 306 306 306 306 306 306 305 305 304 304 304 303 302 301 301 301 301 300 299 298 297 297 297 296 296 295 295 295 294 294 294 293 293 292 291 290 290 290 290 290 290 290 290 290 289 289 288 288 287 287 287 286 286 286 286 286 286 286 286 286 286 286 285 285 284 284 284 284 283 284 284 283 282 281 280 279 279 279 279 279 279 280 281
306 306 306 306 306 305 304 304 304 303 303 303 303 302 301 301 301 301 300 299 298 297 297 297 296 296 295 295 295 295 294 294 294 293 292 292 291 290 290 290 290 290 290 290 289 289 289 288 288 287 287 287 286 286 286 286 286 285 285 286 286 286 286 285 285 284 283 283 282 282 282 283 283 282 281 280 279 279 278 277 277 278 277 277 279
305 305 305 306 305 304 303 303 303 302 303 303 302 302 301 300 300 300 299 299 298 297 297 296 296 295 295 294 294 294 294 294 293 293 292 291 290 290 289 289 289 289 289 289 289 288 288 288 287 287 287 286 286 286 285 285 285 285 285 285 285 285 284 284 284 283 283 282 281 281 282 282 282 281 280 279 278 278 277 276 276 276 277 276 276
302 303 304 304 303 302 302 302 302 302 302 302 302 301 300 300 300 300 300 299 298 297 297 296 295 295 294 294 294 293 293 293 293 292 292 291 290 289 289 289 289 289 289 288 288 288 287 287 287 287 287 286 286 285 285 285 284 284 284 284 284 284 283 283 283 282 282 281 281 281 281 281 280 280 279 277 277 277 276 276 276 276 277 277 276
300 301 302 302 301 300 300 300 301 301 301 301 301 300 300 300 300 300 299 298 298 298 297 296 295 295 294 293 293 293 292 292 292 292 291 291 290 289 288 288 288 288 288 288 288 287 287 287 287 287 286 286 286 285 285 284 284 284 284 283 283 283 283 283 283 283 282 281 281 281 281 280 279 279 278 277 276 276 276 277 277 277 277 277 276
299 299 300 300 299 298 298 299 299 299 299 299 299 299 299 299 299 299 299 298 298 298 297 296 295 294 293 293 292 292 292 292 291 291 291 290 289 288 288 287 287 287 287 287 287 287 286 286 286 286 286 286 286 285 285 284 284 283 283 283 283 283 283 283 283 283 282 281 280 280 280 279 278 278 278 277 276 276 277 277 277 276 276 276 277
299 299 299 298 298 298 297 297 297 297 297 298 298 298 299 299 299 299 298 298 297 296 295 295 294 293 292 292 292 291 291 291 291 290 290 289 288 288 287 287 287 286 286 286 286 286 286 286 286 286 286 286 286 285 285 284 283 283 283 283 283 283 283 283 282 282 281 280 279 279 279 279 278 278 277 277 276 276 276 277 277 277 276 276 277
298 299 299 298 298 298 297 297 296 296 296 296 297 297 297 297 297 297 296 296 295 295 294 293 293 292 292 291 291 291 290 290 290 290 289 288 288 287 287 286 286 286 286 286 286 286 286 286 286 286 286 286 286 285 285 283 283 282 283 283 283 283 283 282 282 281 280 280 279 279 279 279 279 278 278 277 277 276 276 276 278 277 276 275 276
296 297 299 299 298 298 297 296 296 295 295 295 295 296 296 296 296 295 295 295 294 294 294 293 292 291 291 291 290 290 290 290 290 290 289 288 287 287 286 286 286 286 285 285 285 285 286 285 285 285 286 286 286 285 284 282 282 282 282 282 282 283 283 282 281 281 280 280 280 280 280 279 279 279 278 278 277 276 276 276 277 276 275 275 275
294 295 297 297 298 298 298 296 295 295 294 294 294 294 294 295 294 294 294 294 293 293 293 292 292 291 291 291 290 290 290 290 290 290 288 287 286 286 286 286 285 285 285 285 285 285 285 285 285 285 286 286 286 284 283 282 282 282 282 282 282 283 282 281 280 280 280 280 280 280 279 279 279 278 278 278 277 277 276 276 276 275 275 275 274
294 294 295 295 296 298 298 297 296 295 294 293 293 293 293 293 293 293 293 292 292 292 292 291 291 291 291 291 290 290 290 290 290 289 287 285 285 285 285 285 285 285 286 286 285 285 285 285 285 286 286 286 284 283 282 282 282 282 282 282 282 282 280 280 280 280 280 280 279 279 279 278 278 278 278 277 277 276 276 276 276 275 274 273 272
293 293 293 294 295 296 297 298 297 296 295 293 292 292 292 292 292 292 292 291 291 291 291 290 290 290 290 290 290 290 290 290 289 288 286 285 285 285 285 285 285 286 286 285 285 285 285 285 286 286 286 285 283 282 282 282 281 282 282 282 281 280 279 279 279 279 279 279 278 278 278 278 277 277 277 277 277 276 276 276 276 275 273 271 271
291 293 293 293 294 294 295 297 297 296 295 294 292 291 291 291 291 290 290 290 290 290 290 289 289 289 289 289 289 289 289 289 288 287 286 285 284 284 284 285 285 285 285 285 285 285 285 285 286 286 284 283 282 282 282 281 281 281 281 281 280 279 278 279 279 279 278 278 278 277 277 277 277 277 277 276 276 276 276 276 275 274 272 271 271
290 291 292 293 293 294 294 295 296 296 296 295 294 292 291 290 290 290 289 289 289 289 289 288 288 288 288 288 288 288 288 288 287 286 285 284 284 284 284 284 284 285 285 285 285 285 285 285 285 284 282 281 281 281 281 281 281 281 280 280 279 278 278 278 278 278 277 277 277 277 277 276 276 276 276 276 276 276 276 275 274 273 273 273 272
289 289 290 292 293 294 294 294 295 296 296 295 294 293 292 291 290 289 288 288 288 288 288 288 288 288 288 288 288 287 287 287 287 285 284 283 283 283 283 283 284 284 284 284 284 284 284 284 284 282 281 281 281 281 281 281 281 280 280 279 279 278 278 278 277 277 277 276 276 276 276 276 276 276 276 276 275 275 275 275 274 273 273 273 273
288 288 289 290 291 292 294 294 294 295 296 296 295 294 293 292 291 290 288 288 287 287 287 288 288 288 288 288 287 287 287 286 286 284 283 283 283 283 283 283 283 283 283 283 283 283 283 283 282 281 280 281 281 282 281 281 280 280 279 279 279 278 278 277 277 276 276 276 275 275 276 276 276 275 275 275 275 275 275 275 274 274 274 274 273
287 287 288 289 289 291 292 294 294 295 295 296 295 295 293 293 292 291 290 288 287 287 287 288 288 288 288 288 288 287 287 286 285 284 282 282 282 282 282 282 283 282 282 281 281 281 281 281 280 280 281 282 282 281 281 280 279 279 279 278 278 278 277 277 276 276 275 275 275 276 276 275 275 275 274 274 275 275 275 275 274 274 273 272 272
287 287 287 288 288 289 290 292 294 294 294 295 295 295 294 292 292 292 292 290 289 288 287 287 288 288 288 288 287 287 287 286 285 283 282 281 282 282 281 282 282 281 281 280 280 280 280 280 280 281 281 282 281 280 280 279 279 279 278 278 278 277 276 276 275 275 275 275 275 275 275 275 274 274 274 274 275 275 275 274 273 273 272 271 270
286 287 287 287 288 288 289 291 292 294 294 293 293 294 294 293 292 293 293 293 293 291 291 290 290 291 291 289 288 286 285 285 284 284 283 281 281 281 281 281 281 280 280 280 280 281 281 281 281 281 281 280 280 280 279 279 278 278 278 277 277 276 276 275 275 275 275 275 275 275 274 274 274 274 274 274 275 275 274 273 272 272 272 270 270
285 286 287 287 287 288 288 289 290 292 293 293 293 292 292 293 293 293 293 293 293 292 292 292 292 292 292 290 289 288 287 287 286 284 283 282 281 281 281 280 280 281 281 282 283 283 282 281 281 280 280 280 280 279 278 278 278 277 277 276 276 276 275 275 275 275 275 275 275 274 274 274 274 274 274 274 275 275 274 273 272 271 270 270 270
284 285 286 286 286 287 287 288 288 289 291 292 292 291 291 291 291 292 291 291 291 290 290 290 290 290 290 290 290 289 289 289 288 285 283 282 281 281 281 281 281 282 283 283 284 283 282 281 280 280 280 279 279 278 278 278 277 277 276 276 276 275 275 275 275 275 275 275 274 274 274 273 273 273 273 274 274 275 274 273 271 271 270 269 270
282 284 285 285 286 286 286 286 287 287 288 290 291 290 290 290 290 290 290 290 290 289 289 288 288 288 288 288 287 287 286 286 286 284 282 281 280 280 280 280 281 282 283 283 283 282 281 280 280 280 279 279 278 278 278 277 277 276 276 276 275 275 275 275 275 274 274 274 274 274 273 273 273 273 273 273 274 274 274 273 271 270 269 269 269
280 282 283 284 285 286 285 285 286 286 286 287 288 289 289 289 289 289 289 289 289 289 288 287 287 287 286 286 285 285 284 283 283 283 281 280 280 279 280 280 281 281 282 282 282 281 280 280 279 279 279 278 278 278 277 277 276 276 276 275 275 275 275 274 274 274 274 274 274 274 273 273 272 273 273 273 273 273 273 272 271 270 269 269 269
278 280 281 282 283 284 284 284 285 285 285 286 287 287 288 288 288 288 287 287 287 287 287 286 285 285 285 284 284 284 283 283 282 282 280 279 279 279 279 280 280 280 281 281 280 280 280 280 279 279 278 278 277 277 277 276 276 276 276 275 275 275 275 274 274 274 274 274 273 273 273 272 272 272 272 272 271 271 271 271 270 269 269 269 269
276 278 280 280 280 281 282 283 284 284 285 285 286 286 286 287 287 287 286 286 285 285 285 284 283 282 282 282 282 282 282 282 281 281 280 279 279 279 279 279 279 279 279 280 280 279 279 279 279 278 277 277 277 276 276 275 275 275 275 275 275 275 274 274 274 274 274 273 273 273 272 272 272 272 272 272 271 270 270 269 269 269 269 269 269
275 277 279 279 279 280 281 282 283 284 285 285 285 285 285 286 286 285 285 285 284 284 284 283 281 280 280 280 280 281 281 281 280 280 279 279 278 279 279 278 277 277 278 279 279 279 279 279 278 277 277 277 276 276 275 275 275 275 275 275 275 274 274 274 274 273 273 273 273 272 272 272 271 271 271 271 270 269 268 268 269 269 269 269 269
273 274 276 277 278 279 280 281 282 283 284 284 284 285 285 285 285 285 284 284 283 283 282 282 281 280 279 278 279 279 280 280 279 279 279 278 278 279 278 277 277 278 279 279 278 278 278 277 277 277 277 276 276 275 275 275 275 275 275 275 274 274 274 273 273 273 273 273 273 272 272 271 271 271 271 270 269 268 268 268 268 269 269 269 269
271 273 274 275 276 277 279 280 280 281 282 282 283 284 284 284 284 284 283 282 282 281 281 280 280 279 278 277 277 278 278 279 278 278 278 278 278 278 278 278 279 281 281 280 278 278 277 277 276 276 276 275 275 275 275 275 275 274 274 274 274 274 273 273 273 273 273 272 272 272 271 271 271 271 270 269 268 268 268 268 268 268 269 269 268
270 272 273 274 274 276 277 278 279 280 281 281 282 282 282 282 282 282 281 281 280 280 279 279 279 279 278 277 277 277 278 278 278 278 278 278 278 278 278 279 281 281 280 279 278 278 277 276 276 276 275 275 275 275 274 275 274 274 274 274 274 274 273 273 273 272 272 272 272 271 271 271 271 270 269 268 268 268 268 268 268 268 269 269 268
268 269 271 272 273 274 276 277 278 278 279 280 281 281 281 280 280 280 280 279 279 279 279 278 279 279 278 277 277 277 278 278 278 278 279 278 278 278 278 279 280 279 279 278 277 277 276 276 275 275 274 274 274 274 274 274 274 274 274 274 274 273 273 273 272 272 272 272 271 271 271 270 270 269 268 267 267 268 268 268 268 268 268 268 268
268 269 270 271 272 274 276 277 278 278 278 279 280 280 280 279 279 279 279 278 278 278 278 278 278 278 278 277 277 278 278 279 278 279 279 278 278 278 279 279 279 278 277 277 276 276 275 275 275 274 274 274 274 274 274 274 274 274 274 273 273 273 273 272 272 272 272 272 271 271 270 270 270 269 268 267 268 268 268 268 268 268 268 268 268
268 268 269 270 271 274 275 276 277 277 278 279 279 279 279 279 278 278 278 278 278 278 278 278 278 278 277 277 278 278 278 279 279 279 278 278 278 278 278 278 277 277 276 276 275 275 275 275 274 274 274 274 274 274 274 274 274 273 273 273 273 273 273 272 272 272 271 271 271 270 270 270 269 268 268 267 268 268 268 268 268 268 268 268 268
268 268 269 270 271 272 274 275 276 277 278 278 279 279 279 278 278 278 277 277 277 277 277 277 277 277 277 277 278 278 278 279 279 278 278 278 278 278 277 277 276 276 275 275 275 275 274 274 274 274 274 274 274 274 274 273 273 273 273 273 273 273 273 272 272 272 271 271 271 270 270 269 268 268 268 268 268 268 268 268 268 268 268 268 268
269 270 270 271 272 273 273 275 276 277 278 278 278 278 278 277 277 277 277 277 277 277 277 277 277 277 277 277 278 278 278 278 278 278 278 278 278 277 276 276 275 274 274 274 274 274 274 274 273 273 273 273 273 273 273 273 273 273 273 273 273 273 272 272 272 272 271 271 270 270 269 269 268 268 268 268 268 268 268 268 268 268 268 268 268
270 270 271 272 273 274 274 274 275 276 277 278 278 278 277 276 276 276 276 276 276 276 276 276 276 276 277 277 278 278 278 278 277 277 277 277 277 276 275 275 274 273 273 273 273 273 273 273 273 273 273 273 273 273 273 273 273 273 273 273 273 272 272 272 272 271 271 270 270 269 269 269 268 268 268 268 268 268 268 268 268 268 268 268 267
270 271 271 272 273 274 274 275 275 276 277 277 277 277 276 276 276 276 276 276 276 276 276 276 276 276 276 277 277 277 277 277 277 277 277 276 276 275 274 274 273 273 273 273 273 273 273 273 273 273 273 273 273 273 273 273 273 272 272 272 272 272 272 272 271 271 270 270 269 268 268 268 268 268 268 268 268 268 268 268 268 268 268 267 267
271 272 272 273 273 274 274 275 276 276 276 276 276 276 275 275 275 275 275 275 275 275 275 275 275 276 276 276 277 277 276 276 276 276 276 275 275 274 274 273 273 273 273 273 273 273 273 272 272 272 272 273 273 272 272 272 272 272 272 272 272 272 272 271 271 271 270 269 268 268 268 268 268 268 268 268 267 268 268 268 268 268 267 267 267
272 273 273 273 274 274 275 275 276 276 275 275 275 275 275 274 274 275 275 275 275 275 275 275 275 275 276 276 276 276 275 275 276 275 274 274 274 273 273 273 273 273 273 272 272 272 272 272 272 272 272 272 272 272 272 272 272 272 272 272 272 271 271 271 271 271 270 269 268 268 268 268 268 268 268 267 267 267 268 268 268 268 267 267 267
272 273 273 273 274 274 274 275 275 274 274 274 274 274 274 274 274 274 274 274 274 274 274 275 275 275 275 275 275 274 275 275 275 274 273 273 273 273 273 272 272 272 272 272 272 272 272 272 272 272 272 272 272 272 272 272 272 272 272 271 271 271 271 271 271 270 269 269 269 268 268 268 268 268 267 267 267 267 268 268 268 267 267 267 267
272 272 273 273 273 273 273 273 273 273 273 273 273 273 273 273 273 273 273 273 274 274 274 275 275 275 274 274 273 274 274 274 274 273 273 272 272 272 272 272 272 272 272 272 272 272 272 272 272 272 272 272 272 271 271 271 271 271 271 271 271 271 270 270 270 270 269 269 269 268 268 268 268 268 267 267 267 267 268 268 268 267 267 267 267
271 272 272 272 272 272 272 273 272 272 272 272 273 273 272 272 273 273 273 273 273 273 274 274 274 274 273 273 274 274 274 273 273 272 272 272 272 272 272 272 272 272 272 272 272 272 272 272 272 272 272 271 271 271 271 271 271 271 271 271 271 271 270 270 270 270 269 269 269 268 268 268 268 267 267 267 267 268 268 268 268 267 267 267 267
271 271 272 272 272 272 272 272 272 272 272 272 272 272 272 272 272 272 272 273 273 273 274 274 273 273 273 274 274 274 273 272 272 272 272 272 272 272 272 272 272 272 272 272 271 271 271 271 271 271 271 271 271 271 271 271 271 271 271 271 271 271 270 270 270 270 269 269 268 268 268 267 267 267 267 267 267 268 268 268 268 267 267 267 267
Wind_Speed
36 36 37 38 42 45 48 50 51 52 52 53 53 52 51 51 50 50 51 51 50 49 48 47 46 44 43 43 43 44 46 47 48 48 47 45 43 42 40 39 37 35 33 32 31 29 28 26 25 25 24 24 23 23 23 22 22 21 20 19 18 18 21 24 29 34 32 29 32 35 37 39 40 38 38 40 40 40 41 40 39 39 39 39 39
34 35 37 40 42 44 48 52 54 55 55 56 56 55 54 53 52 53 53 52 51 50 49 48 47 46 44 43 43 43 45 46 48 48 48 47 45 44 42 40 38 37 35 34 32 30 28 27 26 26 25 25 24 24 24 23 22 21 19 19 18 18 21 24 28 33 35 33 32 34 38 40 41 40 40 42 43 41 40 39 38 39 39 39 40
34 36 39 43 45 47 49 52 55 57 58 58 58 57 57 56 55 55 55 54 53 52 51 50 49 48 46 44 43 43 44 46 48 49 49 48 47 45 44 42 40 39 37 35 33 31 29 28 28 27 27 26 25 25 24 23 22 21 19 19 19 19 21 24 27 32 36 36 33 34 38 40 42 41 40 42 43 43 41 39 38 39 40 40 40
34 35 39 42 45 50 53 54 54 56 58 59 60 59 59 59 58 58 57 56 55 53 52 52 51 49 47 46 44 44 45 47 48 49 49 49 48 46 45 43 42 40 37 35 33 31 30 29 29 29 28 27 26 25 24 24 22 20 19 19 20 21 22 24 27 30 34 37 36 35 36 39 42 42 41 41 41 41 41 40 40 41 41 41 41
34 36 39 42 46 50 55 56 55 55 55 56 58 60 61 61 61 61 60 58 57 55 55 54 53 52 50 48 46 45 45 46 48 49 49 49 48 47 46 44 42 40 38 36 34 32 31 30 30 29 29 27 26 25 25 24 22 20 20 20 20 21 23 24 26 29 33 37 38 36 36 38 40 41 41 40 41 42 41 41 42 43 44 44 44
39 42 44 47 49 51 55 57 56 54 52 51 53 59 63 64 64 63 61 60 59 58 57 56 55 54 52 50 48 46 45 46 48 49 49 49 48 47 46 45 43 41 39 37 35 33 32 31 30 30 29 28 26 26 24 23 22 21 20 21 21 22 23 24 26 28 31 35 37 38 37 37 39 41 40 40 42 44 44 44 44 44 45 47 47
46 48 50 52 52 51 53 56 56 52 49 48 50 56 61 63 64 63 62 61 61 60 59 58 57 55 54 52 50 47 45 46 47 49 50 49 49 48 48 46 44 42 40 37 35 34 32 31 30 30 29 28 26 25 24 23 22 21 21 21 21 22 23 23 25 28 31 34 35 36 37 37 38 40 41 40 42 43 44 48 49 47 47 48 49
47 50 53 54 53 51 50 52 53 51 49 50 52 55 59 61 62 62 60 61 61 61 60 58 57 56 54 53 51 48 46 47 47 49 51 50 49 50 49 47 46 43 41 39 37 35 33 31 30 29 29 27 26 25 24 23 22 21 21 21 21 22 22 23 26 28 30 33 34 35 36 37 38 40 42 43 43 43 42 46 50 51 49 49 48
45 49 53 55 54 51 48 48 50 50 50 52 53 55 57 58 59 59 60 61 61 60 58 57 56 55 54 53 51 50 49 48 49 50 51 51 51 51 50 48 47 45 43 40 38 36 33 31 30 29 28 27 26 24 24 23 22 22 22 22 21 22 23 24 26 28 30 32 33 33 35 37 38 40 42 42 41 42 42 43 47 50 51 52 49
43 45 49 51 51 49 47 47 49 49 50 51 53 54 55 56 56 57 59 60 59 57 56 56 56 55 54 53 52 52 51 51 50 49 50 51 51 51 50 49 47 45 43 41 38 36 33 31 30 29 28 27 26 25 24 23 23 22 22 22 22 22 23 25 26 28 30 32 31 31 34 36 37 37 40 40 39 40 41 42 46 50 51 54 54
43 44 44 45 46 46 46 46 47 48 49 50 51 53 53 54 55 56 57 57 57 56 55 55 56 55 54 54 54 54 53 52 51 49 49 50 51 51 51 50 48 46 43 41 38 35 33 31 30 29 29 27 26 25 24 24 23 22 22 22 22 22 23 25 26 28 29 30 29 29 32 35 36 35 37 38 38 39 40 40 43 47 47 50 55
40 43 43 42 43 44 44 44 45 46 46 48 50 51 51 53 54 55 55 55 54 54 54 55 55 55 54 54 54 54 53 52 50 49 49 50 51 51 51 50 48 46 44 41 37 34 33 31 30 30 29 27 25 24 24 24 23 23 22 21 21 21 22 23 25 27 27 27 27 28 30 32 34 34 34 35 36 38 40 40 40 43 45 46 49
32 36 38 38 40 41 42 42 43 44 44 46 48 49 50 52 53 53 53 53 52 52 53 54 54 54 54 55 55 54 53 51 50 49 49 50 51 52 51 49 48 45 43 40 37 35 33 32 31 30 28 27 25 24 24 24 22 22 21 20 20 20 21 22 24 25 24 24 26 28 28 29 31 33 32 32 34 37 40 41 41 42 44 45 48
33 31 30 32 34 37 38 39 41 42 42 44 46 48 49 50 51 51 50 50 50 51 52 53 53 53 54 54 54 53 52 51 50 49 49 50 51 52 50 48 46 44 41 38 37 35 34 32 31 30 28 26 25 24 24 23 21 21 20 20 21 21 21 23 23 23 22 23 25 27 26 27 30 32 32 31 32 35 38 40 40 42 46 49 52
39 35 31 30 31 32 35 37 38 40 41 42 44 45 47 48 49 49 49 49 50 50 51 52 52 53 53 53 53 52 52 51 50 49 49 51 52 52 50 48 46 43 40 38 36 35 34 33 31 29 27 26 25 24 23 22 21 20 20 20 22 21 22 23 23 22 22 22 24 26 27 28 29 30 31 30 30 32 35 39 41 44 49 52 53
42 41 38 35 32 31 31 33 36 37 39 41 43 44 46 47 47 48 48 48 49 49 50 50 51 51 51 52 52 52 52 51 49 49 50 51 52 52 50 48 46 43 40 38 37 36 35 33 31 29 27 26 25 24 22 21 20 20 21 22 22 22 22 22 21 20 21 21 23 25 27 28 28 28 28 28 29 32 36 41 43 44 48 51 52
42 42 42 40 37 33 30 31 32 35 37 40 42 44 45 46 47 47 47 48 48 49 49 49 50 50 50 51 51 52 51 50 49 49 50 52 53 53 51 49 46 43 41 39 38 37 35 33 31 29 27 26 25 23 21 20 20 21 22 22 21 22 22 21 20 20 21 22 23 25 26 26 26 26 26 27 29 33 37 42 43 43 46 49 51
40 41 42 42 41 37 33 30 30 32 35 38 40 42 44 45 46 46 46 47 47 48 48 48 48 48 48 49 50 50 49 48 47 48 50 52 54 53 51 49 46 43 41 40 38 37 35 32 30 28 27 26 24 22 20 20 21 21 21 21 22 23 21 19 20 21 22 23 24 25 25 25 25 26 27 29 30 32 36 40 41 41 44 46 47
39 39 40 41 41 40 37 33 30 30 32 35 37 40 42 44 45 45 45 46 46 46 46 47 47 47 47 47 47 47 47 46 46 47 49 51 54 53 50 49 47 44 42 41 39 37 35 33 30 29 27 25 23 21 20 20 21 21 21 22 23 22 20 19 21 22 23 24 24 25 25 25 26 27 28 30 31 32 35 38 38 39 40 41 42
37 36 37 38 39 39 38 36 32 29 30 32 35 37 40 41 43 44 44 45 45 45 45 46 46 46 46 46 46 46 45 45 45 46 48 50 52 52 50 49 48 45 43 41 39 37 35 33 31 28 27 25 23 21 20 20 20 21 22 23 23 20 18 19 21 22 24 24 25 25 26 25 26 28 29 30 32 32 34 35 35 35 35 36 38
37 36 36 36 36 36 36 36 34 30 28 29 32 35 38 40 42 42 43 43 44 45 45 45 45 45 45 45 45 45 45 43 43 45 47 48 50 51 50 48 47 45 42 40 39 37 36 34 31 28 26 24 22 20 19 19 19 21 22 22 20 18 18 20 22 22 23 24 25 26 27 26 27 27 28 30 31 32 33 34 33 33 31 32 36
39 37 36 35 35 34 33 34 34 32 28 27 29 32 36 38 40 41 42 43 44 44 44 45 44 44 45 45 45 45 44 43 43 45 46 47 49 51 49 47 45 43 41 40 39 37 35 32 29 27 25 23 20 19 18 19 19 20 21 19 17 17 19 21 22 22 22 24 25 26 27 27 28 28 28 29 31 31 33 34 33 32 31 31 34
42 40 38 36 35 34 33 32 32 32 30 27 26 29 32 36 38 40 41 42 43 43 44 44 43 44 45 44 45 45 44 43 43 44 45 45 47 49 48 45 43 42 41 40 38 35 33 31 28 26 24 21 19 18 19 19 20 19 18 17 17 18 20 20 21 21 23 24 25 26 27 27 28 28 28 29 31 32 33 33 32 31 32 34 35
44 42 41 38 36 35 33 32 32 32 31 28 26 28 30 32 36 39 40 41 42 43 43 43 42 43 44 44 44 45 44 43 43 44 45 44 44 45 45 43 42 42 41 38 35 33 31 29 27 25 22 20 19 20 20 19 19 18 17 17 18 18 19 19 20 21 23 23 25 26 26 26 27 28 29 30 32 33 33 33 33 32 33 36 38
46 44 43 41 39 37 35 33 32 31 31 31 29 29 30 30 33 36 39 41 42 42 42 42 42 42 43 43 44 44 43 43 43 44 45 44 41 41 42 41 41 41 39 37 34 31 30 28 25 23 21 20 21 20 19 18 18 17 17 17 17 17 17 19 20 22 23 23 24 25 25 26 27 29 30 31 32 33 34 34 34 34 35 38 41
46 45 44 42 40 39 38 36 33 31 31 32 32 32 32 32 32 34 37 40 42 42 42 41 41 42 42 43 44 44 43 43 43 44 47 45 40 38 39 39 39 40 38 35 32 29 27 26 25 23 22 22 21 19 18 18 18 17 16 16 16 16 17 19 20 22 22 23 24 25 25 26 28 29 30 32 33 34 34 35 37 37 38 40 44
47 47 46 44 43 42 41 39 36 34 33 33 34 35 35 35 35 35 36 38 40 42 42 42 41 42 42 43 44 44 44 44 44 46 49 49 45 41 40 39 39 39 37 34 30 28 28 28 26 23 22 20 19 18 18 17 16 16 15 15 15 15 17 19 20 21 22 22 24 25 26 27 29 30 31 33 35 34 34 35 38 40 40 41 45
48 48 47 46 45 44 43 42 40 37 36 35 36 37 38 38 39 40 39 38 39 40 42 42 41 41 41 43 44 45 45 46 47 49 53 53 50 46 43 40 39 39 36 32 30 30 31 29 25 22 21 20 19 19 18 17 16 16 15 14 14 15 17 18 19 20 21 22 24 25 26 28 29 31 33 35 36 35 34 35 37 40 41 42 45
50 49 48 47 46 45 45 45 43 41 39 38 37 39 40 41 41 42 42 41 40 40 41 41 41 40 41 42 44 45 47 48 49 51 52 53 52 50 47 43 41 39 36 33 32 33 31 26 23 22 22 21 20 19 18 17 17 15 13 13 14 15 16 17 18 19 20 21 23 25 27 29 30 31 34 36 36 36 35 35 37 40 42 43 46
51 50 49 47 46 44 44 46 45 43 41 40 39 39 40 42 43 43 43 43 43 42 42 42 42 41 41 42 43 43 43 44 46 49 51 52 52 51 49 46 42 39 36 35 33 31 27 24 24 24 23 22 21 20 19 18 15 13 12 13 14 15 16 16 17 19 19 21 23 25 26 29 31 33 35 36 38 37 36 36 37 39 42 45 48
50 51 49 47 45 42 42 44 44 43 42 41 40 39 40 42 43 44 44 45 44 44 43 43 43 42 41 41 41 42 42 42 43 47 51 52 51 50 49 46 42 39 37 36 33 29 27 26 26 25 23 22 21 20 19 16 14 12 12 13 14 15 15 15 16 18 19 21 22 24 26 28 31 33 35 36 38 38 38 38 39 41 43 45 48
46 48 47 44 41 40 40 41 42 42 41 41 40 39 40 41 43 44 45 45 46 46 45 44 44 44 43 41 40 40 41 41 41 44 48 50 50 50 49 46 41 39 38 35 31 29 28 27 27 25 24 23 22 20 18 15 13 13 13 13 13 14 14 14 15 17 19 21 23 24 26 28 31 33 35 35 36 38 39 40 41 43 45 47 49
41 43 43 41 38 37 38 39 40 41 40 40 40 40 40 41 43 44 44 44 44 44 44 44 44 43 43 42 41 40 39 38 38 41 45 48 48 48 47 44 40 40 39 35 31 30 29 28 27 26 25 23 22 20 17 14 14 14 14 13 12 12 12 13 15 17 18 20 23 24 26 28 30 33 35 34 34 37 39 41 43 44 46 49 52
38 40 41 39 37 36 37 38 39 39 39 39 39 40 40 41 41 42 43 43 42 42 42 42 41 41 41 40 40 39 38 36 36 40 44 46 46 46 45 41 38 37 37 34 31 31 30 29 28 27 25 23 21 18 15 14 14 14 13 12 11 10 11 12 14 16 18 20 22 23 26 28 30 32 34 34 35 37 39 41 44 45 47 51 55
40 40 39 37 35 36 38 38 39 39 39 39 39 39 40 40 40 41 43 43 42 42 40 38 37 36 36 37 37 37 36 36 36 39 43 45 45 43 42 40 38 37 36 33 30 30 30 29 28 26 24 22 19 16 14 14 13 13 12 11 10 10 10 12 14 16 18 20 21 24 26 28 30 31 32 34 35 37 39 42 44 45 48 52 56
40 38 37 36 35 35 36 37 37 37 38 38 38 39 39 40 40 41 42 42 41 40 38 37 34 31 30 32 34 34 34 35 36 39 43 45 45 44 44 43 41 39 37 35 33 32 31 29 27 24 22 20 17 15 14 13 13 12 11 10 9 10 11 12 14 17 18 20 22 24 26 28 29 30 31 33 34 36 39 42 44 47 50 52 55
37 37 38 38 36 34 34 36 36 36 36 35 36 38 39 40 41 41 41 41 40 38 36 35 33 30 29 31 31 31 33 34 36 39 42 43 43 44 45 44 42 40 38 37 36 34 31 28 26 23 20 18 16 14 13 13 12 11 10 9 9 10 11 13 15 17 19 20 22 24 26 28 29 29 30 32 35 37 39 41 44 49 52 53 54
35 35 37 38 37 35 34 33 33 35 35 34 35 37 38 39 40 40 40 39 39 37 36 35 34 34 35 34 32 32 33 34 36 38 39 41 44 46 46 44 41 39 36 35 34 32 30 27 24 21 18 16 15 13 13 12 11 10 9 9 9 10 12 14 15 17 19 21 22 24 26 28 28 28 29 31 35 38 40 42 45 50 54 55 56
39 40 42 42 42 42 40 36 34 34 33 33 34 35 37 38 38 38 38 37 37 36 36 35 36 37 38 36 34 35 38 40 41 43 44 47 50 49 45 41 38 35 33 33 32 30 28 25 22 19 17 15 14 13 12 12 11 10 9 9 10 11 12 14 15 17 19 21 22 24 26 28 28 28 29 32 35 37 39 43 47 50 53 56 57
42 42 41 39 38 40 41 40 39 38 34 33 33 34 35 37 37 37 37 36 36 36 36 37 37 38 38 37 37 41 44 45 46 48 51 52 50 46 42 39 36 34 34 33 31 29 26 23 20 18 16 15 14 13 12 11 10 9 9 9 10 11 12 14 16 18 19 21 23 25 26 28 28 29 31 32 34 35 39 45 49 50 52 55 57
38 38 38 36 34 34 34 35 38 38 35 32 32 33 34 35 35 35 35 35 36 36 37 37 37 38 37 37 40 44 46 47 49 52 53 51 47 44 42 39 36 35 34 32 29 27 24 21 18 17 15 14 13 12 11 11 10 9 10 10 11 12 13 14 17 18 19 21 24 25 27 28 28 30 32 33 33 36 41 46 48 50 53 55 56
38 39 39 37 36 34 32 32 33 33 32 30 30 32 33 33 33 34 34 35 36 36 37 36 37 37 37 38 43 47 49 49 51 53 51 48 45 44 42 38 35 33 31 29 27 24 21 19 17 16 14 13 12 12 11 11 10 9 10 11 12 13 14 15 17 19 20 22 24 25 27 28 28 30 32 33 34 39 44 47 47 50 54 56 56
34 35 36 35 34 33 33 32 32 31 31 30 29 30 31 32 32 33 34 35 36 36 37 37 37 37 38 41 47 50 52 52 53 52 49 47 45 42 38 35 32 30 28 26 24 21 19 18 16 15 13 12 12 11 10 10 10 10 11 12 12 14 15 16 18 19 21 23 25 26 27 28 29 31 32 33 36 42 45 46 48 52 54 55 56
28 29 29 29 29 29 29 30 31 31 30 29 28 29 30 30 31 32 33 34 36 36 37 38 39 39 41 44 49 52 53 52 52 50 47 45 42 37 34 32 30 29 27 24 22 20 18 17 15 13 12 11 11 10 10 10 9 10 12 12 13 14 16 17 18 20 22 24 25 27 28 29 30 32 32 34 39 44 44 44 48 53 54 55 55
26 26 25 25 24 24 24 26 28 29 29 28 27 27 28 29 30 32 33 34 36 37 38 39 41 44 44 46 49 52 52 50 49 46 44 41 37 34 32 30 28 26 25 22 20 19 17 15 14 12 11 10 10 9 9 9 10 11 12 14 14 15 16 17 19 20 22 24 25 27 28 30 31 32 33 37 41 42 42 44 49 52 54 54 55
21 21 21 20 20 20 21 22 25 26 26 26 26 26 27 28 30 32 34 36 38 39 40 42 44 46 46 47 49 51 50 46 43 41 38 36 33 31 30 29 27 25 23 21 20 18 16 14 12 11 10 9 9 8 8 9 10 11 13 14 15 16 17 18 19 21 22 23 25 26 28 30 31 32 35 40 41 40 40 44 49 51 53 53 54
14 13 13 14 16 18 19 20 22 23 24 24 25 26 28 30 31 33 35 37 39 41 43 45 46 46 46 47 48 48 44 40 37 36 34 32 31 30 29 28 26 24 22 20 19 17 15 13 11 10 9 8 8 8 8 10 11 12 14 15 15 16 17 18 20 21 22 23 24 26 27 29 31 33 37 40 39 38 40 45 48 51 52 52 53
11 10 10 12 14 16 17 18 20 21 22 24 25 27 29 31 33 35 36 38 40 41 44 45 46 45 45 44 43 42 38 35 33 32 31 30 30 29 28 26 25 23 21 19 17 15 14 12 10 9 8 8 7 8 9 10 11 13 14 15 15 17 18 19 20 22 22 23 25 26 27 29 31 35 38 38 36 37 41 45 48 51 52 52 52
8 7 8 9 12 14 16 17 19 21 22 24 26 28 30 31 33 35 37 38 40 42 44 45 45 44 42 39 38 37 35 32 31 31 31 30 29 28 27 25 23 21 19 17 16 14 12 11 9 8 8 8 8 8 9 10 12 13 14 15 15 16 18 19 20 21 21 23 25 26 26 29 33 36 37 35 35 37 40 44 47 50 51 51 52
4 3 5 7 10 12 14 16 18 20 22 24 25 27 29 31 32 34 36 37 39 41 42 42 43 41 38 36 37 36 34 31 31 31 30 29 28 27 25 23 21 19 17 15 14 12 11 9 8 8 8 8 8 9 10 11 13 14 14 15 16 17 17 19 20 20 21 23 25 25 26 29 33 35 34 33 34 37 41 44 47 49 51 51 52
2 1 3 5 8 10 12 14 16 18 20 22 24 26 28 29 31 33 34 36 37 39 40 40 39 37 35 35 36 35 32 30 29 29 28 27 26 24 23 21 19 17 15 14 12 11 9 9 8 8 8 9 9 10 11 12 13 14 15 15 16 17 18 19 20 21 22 23 23 24 26 30 32 32 31 32 34 37 41 44 46 49 50 51 51
Wind_Direction
259 256 255 254 252 250 247 244 242 242 242 242 242 241 241 241 242 243 244 245 246 247 247 247 246 243 240 238 237 236 235 234 233 232 231 230 230 230 231 232 233 235 236 238 241 244 248 250 252 254 256 259 262 265 265 263 263 266 271 278 287 296 300 301 303 305 309 311 311 311 310 310 313 317 319 318 317 317 317 320 320 318 316 315 313
269 262 257 255 255 255 252 249 247 245 244 243 243 243 242 242 242 243 244 245 245 246 247 247 247 245 241 239 237 236 235 235 234 232 231 231 230 229 230 231 232 233 234 237 240 243 247 249 251 253 254 257 260 262 262 260 261 264 271 279 287 294 298 300 302 304 307 310 311 312 312 312 314 317 320 318 316 316 317 319 319 317 317 316 315
277 271 265 262 261 259 257 253 251 249 247 246 245 244 244 244 243 243 244 244 245 246 247 247 247 246 243 240 238 236 235 234 234 233 232 231 231 230 231 231 232 233 234 237 239 242 245 248 250 252 253 255 258 259 258 258 261 265 272 280 287 292 295 298 300 302 305 307 310 313 313 312 313 315 318 317 315 317 320 321 319 317 317 317 315
277 275 274 273 270 265 261 257 255 253 252 251 249 247 246 245 245 244 244 244 245 245 246 247 246 246 243 241 238 236 234 234 233 233 232 232 232 231 231 232 232 233 235 236 238 241 244 247 250 251 252 254 255 256 256 256 259 264 272 279 285 290 293 296 299 301 303 306 309 312 311 311 312 314 315 314 313 317 321 322 322 320 319 318 318
278 279 279 278 275 270 264 260 258 257 256 256 254 251 249 247 246 245 245 245 245 245 245 245 245 245 244 241 239 236 235 234 234 233 232 232 232 232 232 232 233 234 234 235 237 240 243 246 249 250 251 253 255 255 254 255 259 265 272 278 283 288 292 296 298 300 302 305 307 309 309 310 311 311 314 315 317 320 322 323 323 321 321 321 320
287 286 284 282 279 274 267 260 258 259 260 260 259 255 251 248 247 246 246 246 245 245 244 244 245 245 244 242 239 237 235 234 234 233 232 232 231 231 231 231 232 233 233 234 236 238 241 244 247 249 252 253 253 253 252 254 260 266 272 277 282 287 291 294 298 299 301 302 304 307 309 309 309 310 315 320 323 325 324 323 322 321 321 322 322
297 293 289 285 280 277 271 261 256 258 261 263 262 258 252 249 247 247 246 246 246 245 245 245 245 245 244 242 240 237 235 234 234 233 232 231 231 230 230 230 230 231 232 233 235 237 240 242 246 249 251 252 251 251 252 256 261 266 271 276 281 285 290 294 297 298 298 300 303 305 306 307 310 314 319 324 327 327 326 324 323 322 323 323 322
299 296 292 287 283 281 275 263 257 259 261 261 261 259 254 250 248 247 247 247 247 246 245 245 244 243 242 241 240 238 235 233 232 232 231 231 230 230 230 229 229 230 231 232 234 236 238 240 244 248 249 250 249 250 253 257 261 266 270 275 280 285 290 293 294 295 296 298 301 303 305 309 314 317 322 327 328 328 328 325 322 322 323 321 320
294 294 293 290 288 286 279 268 261 261 261 260 260 260 256 252 250 249 248 248 247 246 245 245 244 242 241 240 239 237 235 233 232 230 230 230 229 229 228 229 230 230 231 232 233 234 236 239 242 245 246 246 247 249 253 256 260 266 271 276 281 284 288 290 292 294 296 297 300 305 309 313 317 321 323 325 325 324 324 323 320 319 320 319 318
286 287 290 291 292 289 281 272 266 264 263 262 262 260 256 252 250 249 248 247 246 245 245 244 244 243 241 239 238 236 235 233 231 230 230 231 230 228 228 228 229 230 231 232 233 234 235 237 240 242 243 244 245 248 251 256 261 266 270 274 277 282 287 291 294 297 298 299 304 311 313 314 318 321 320 321 321 321 321 320 319 319 320 319 318
284 285 286 289 292 289 282 276 270 267 266 264 262 259 255 251 249 248 247 246 246 245 245 245 244 243 241 240 239 237 235 233 231 229 229 230 230 229 228 228 228 229 230 231 233 234 235 237 238 239 241 243 245 247 251 256 262 266 269 273 279 286 291 294 297 299 299 301 306 311 312 313 316 317 317 318 319 319 319 317 317 317 318 316 315
287 287 286 288 290 289 285 280 275 271 268 265 263 259 254 250 248 247 247 246 246 245 245 245 243 242 241 239 238 237 236 234 232 229 228 229 229 229 229 229 229 229 229 230 231 232 234 235 236 238 240 242 244 247 251 257 262 266 271 276 281 286 288 291 294 294 295 299 304 306 308 309 311 313 316 316 315 315 314 312 313 315 314 311 310
306 295 291 292 294 291 287 283 279 275 271 267 263 258 253 250 248 248 247 246 246 246 246 244 243 241 240 239 238 236 235 234 231 229 228 229 229 228 228 228 229 229 229 229 230 230 231 233 234 236 238 240 242 247 252 257 261 265 270 275 278 280 284 286 287 288 293 298 298 299 303 305 307 312 313 310 309 310 312 312 314 313 308 304 302
338 323 310 304 302 297 292 288 284 279 272 266 262 257 253 251 249 248 247 246 246 246 245 243 242 241 240 238 237 235 234 232 230 228 228 229 228 227 227 227 227 228 228 229 230 230 230 231 232 234 236 238 242 247 251 256 260 264 269 273 275 278 282 283 283 287 293 294 293 298 304 305 306 308 309 307 306 308 310 310 306 302 298 297 298
350 347 338 327 318 308 300 294 288 282 274 267 262 258 254 251 250 249 248 248 247 246 245 243 241 239 238 236 235 234 233 232 229 228 228 228 228 226 225 225 225 225 226 227 228 229 229 230 231 232 233 236 242 246 252 257 262 266 270 271 273 277 280 283 286 290 294 295 297 302 304 304 304 305 306 307 304 301 299 297 295 294 296 298 299
348 350 349 344 335 324 313 303 292 284 277 270 265 261 257 253 252 250 248 247 245 243 242 241 240 238 236 235 233 232 232 231 229 228 228 228 227 225 224 223 223 223 224 224 225 226 228 229 230 230 232 236 242 247 254 260 263 266 267 268 272 278 281 285 289 294 296 295 295 296 297 300 301 299 300 300 296 295 295 295 297 299 301 302 302
342 345 347 349 345 337 327 314 300 288 279 272 268 263 259 255 252 249 247 244 242 241 239 238 237 236 235 233 232 231 231 229 228 228 228 228 227 225 222 221 221 222 222 223 224 225 227 229 229 230 233 237 242 250 256 260 263 265 268 271 276 280 282 287 291 293 292 290 289 291 294 298 300 299 301 300 298 300 299 299 303 304 302 302 301
338 338 340 344 346 345 338 325 310 296 283 275 270 265 261 257 253 250 247 244 242 240 239 237 236 235 234 234 233 232 232 230 228 229 229 228 229 226 222 220 220 220 221 222 223 225 226 227 227 229 234 238 244 250 253 256 259 263 267 272 275 278 284 289 290 289 289 290 291 294 297 303 306 306 307 305 303 303 301 300 303 302 299 298 299
336 335 334 336 339 342 342 335 322 307 293 281 273 267 262 258 254 251 247 244 242 241 239 237 236 235 234 234 234 233 233 231 230 230 229 228 229 227 222 220 219 219 220 221 222 223 224 225 226 229 234 239 244 247 248 250 254 258 264 269 273 280 286 289 287 288 290 293 296 300 304 309 311 309 308 306 305 304 302 300 300 298 297 298 300
331 330 329 329 331 334 338 338 331 319 304 290 278 270 264 259 254 250 246 243 241 239 238 237 236 235 234 234 233 232 233 231 230 230 227 227 230 227 222 220 221 220 221 222 222 222 222 224 226 230 235 238 240 241 242 246 252 258 264 269 275 283 286 284 285 288 293 297 301 305 308 310 310 309 308 307 306 304 302 300 299 299 300 299 299
325 325 325 326 326 327 329 332 333 327 314 299 284 273 265 259 255 251 247 244 240 239 237 236 235 234 234 233 232 231 232 230 228 228 225 225 228 228 224 222 223 223 222 223 223 222 223 224 227 231 235 236 236 237 240 244 251 258 264 270 277 283 283 282 286 290 295 300 302 304 307 309 309 310 309 307 306 305 305 305 304 305 301 295 294
320 319 319 321 322 322 322 324 326 325 318 306 291 278 268 261 256 251 247 244 241 239 237 235 234 233 232 232 231 231 231 229 226 226 224 222 225 228 226 224 225 225 224 223 222 221 222 224 227 229 231 231 232 234 238 243 248 254 261 268 273 276 278 281 288 294 296 298 300 302 306 308 308 309 308 307 308 309 310 310 308 305 300 293 290
317 315 314 314 316 317 316 316 317 318 316 308 297 285 274 264 258 252 247 244 240 238 236 234 233 232 231 231 231 231 230 228 225 223 221 217 220 227 227 224 224 225 224 224 223 221 221 224 225 226 226 227 227 229 233 240 246 250 257 263 265 269 275 281 288 293 293 295 298 301 305 307 307 309 310 311 313 314 313 311 308 306 303 301 298
315 313 311 310 310 310 309 309 308 309 309 305 296 287 279 269 261 253 247 243 240 237 236 234 233 233 232 232 231 230 229 227 224 222 218 213 214 222 226 224 223 224 223 223 223 222 222 224 224 223 224 222 222 227 233 240 244 247 251 257 262 269 277 283 287 288 290 294 297 300 303 306 307 310 313 315 316 316 313 311 310 309 308 308 307
311 310 309 307 306 304 302 301 299 298 300 299 294 286 278 272 265 257 249 244 241 238 237 235 234 234 234 233 232 231 229 226 222 219 215 209 209 218 224 222 222 223 221 220 221 221 222 224 223 222 222 222 224 231 235 237 240 244 248 255 263 270 277 281 284 286 290 294 296 298 303 307 309 313 316 316 316 315 314 313 313 314 315 314 313
307 306 304 303 301 299 297 295 294 292 291 291 290 284 276 270 266 260 253 247 243 240 239 238 235 235 236 235 234 233 230 226 221 216 212 207 204 212 220 220 220 222 220 218 219 219 220 222 222 220 222 226 229 232 232 232 236 243 248 254 262 269 275 279 282 286 289 293 296 300 306 310 312 315 316 315 315 315 316 317 317 318 320 319 315
303 302 300 299 296 294 292 291 291 290 287 285 284 281 274 267 262 259 255 251 246 242 240 239 237 236 237 236 234 233 231 227 221 215 211 206 203 207 215 217 216 217 216 213 213 216 219 221 221 222 224 226 227 228 228 229 233 239 244 252 260 267 273 277 281 285 290 294 299 304 310 312 313 316 316 315 316 317 319 321 320 321 323 320 314
299 298 297 295 292 290 287 286 285 286 286 283 280 277 273 267 263 262 261 259 255 250 246 244 242 242 240 237 233 230 228 225 221 217 213 208 203 204 210 211 210 212 211 207 208 214 219 221 221 220 221 223 223 224 225 226 228 233 239 248 257 264 269 274 280 286 292 298 303 307 311 312 314 317 318 317 317 318 321 323 322 322 323 320 314
296 294 293 292 290 287 285 283 281 280 281 281 279 276 273 270 267 266 264 260 257 255 252 251 250 247 244 241 236 232 229 228 224 219 214 210 205 205 208 208 207 210 212 211 213 217 219 219 217 216 218 220 221 222 222 222 224 229 235 244 253 261 267 273 280 287 293 300 304 308 310 313 316 318 318 317 318 320 322 324 324 324 322 319 314
294 291 289 288 286 284 282 281 279 277 276 277 277 276 273 269 267 265 262 259 256 252 250 250 250 248 246 245 243 241 240 237 230 220 215 212 209 208 209 210 210 212 213 214 216 218 218 217 216 216 218 219 219 219 220 221 223 228 236 246 253 260 267 274 282 290 296 301 305 309 312 315 317 319 319 319 319 320 324 326 326 324 321 317 315
293 289 287 286 284 281 279 279 278 277 275 274 273 273 271 268 265 262 259 257 255 253 250 250 249 248 247 246 244 242 241 237 230 222 215 212 209 207 208 211 213 214 215 215 215 215 216 216 215 215 215 216 216 218 219 220 222 226 236 247 254 260 269 278 286 293 300 305 307 311 315 317 318 319 320 321 321 322 325 328 328 325 321 317 314
288 286 285 284 282 279 277 276 277 276 275 272 270 269 267 265 262 260 257 255 254 253 251 250 249 248 246 244 242 240 237 233 229 223 215 209 206 206 208 211 212 214 216 216 216 215 215 214 214 214 214 214 215 216 218 219 222 228 234 241 250 261 272 282 290 297 303 307 309 314 318 319 320 321 321 322 324 324 327 328 328 325 321 318 315
283 282 282 282 282 280 278 276 276 276 275 273 270 267 265 262 260 259 256 254 253 252 250 248 248 246 244 242 239 238 236 233 228 221 212 206 204 205 207 208 209 212 215 214 213 214 214 213 213 213 213 213 213 214 215 218 223 231 239 243 248 262 275 285 295 301 305 308 312 316 319 320 321 322 322 324 326 327 327 327 326 324 321 318 317
279 278 276 277 280 281 278 277 276 276 276 274 271 268 265 262 260 257 253 250 249 248 246 245 244 243 242 240 238 235 233 230 225 218 210 204 202 203 204 203 204 210 216 216 214 213 212 210 210 211 210 210 212 212 214 220 227 234 244 251 258 270 281 291 299 304 306 310 314 317 320 322 323 323 323 324 327 328 326 326 324 322 320 318 317
281 279 275 275 278 278 277 277 276 276 276 274 272 269 265 262 258 254 251 248 246 245 243 240 237 236 236 235 234 232 228 223 218 212 206 200 198 199 199 196 194 201 210 214 213 213 211 209 209 208 207 208 210 210 215 225 233 238 247 258 269 282 292 298 303 306 308 313 317 320 322 324 324 323 323 326 329 328 326 325 323 321 319 318 318
282 276 270 270 272 273 275 276 276 276 276 276 274 270 266 261 257 253 249 246 243 241 239 236 232 228 226 228 229 227 223 216 209 204 201 198 197 198 197 193 193 201 209 209 207 207 208 207 206 206 206 207 208 211 219 229 237 244 253 264 277 290 299 303 305 308 311 315 320 323 324 323 321 323 326 328 329 326 324 323 322 320 319 319 318
279 272 268 269 270 271 272 274 275 275 276 277 274 269 262 257 253 248 244 241 237 234 232 230 224 214 210 215 219 216 212 207 201 198 197 195 194 197 200 200 204 210 210 206 203 202 202 202 202 203 204 205 207 213 223 231 239 248 259 271 284 295 301 304 308 311 315 319 322 323 321 320 321 325 331 331 328 325 324 323 321 320 320 320 319
280 274 269 268 268 267 267 270 274 276 277 275 271 265 258 252 247 242 238 234 231 227 223 221 217 208 203 204 204 200 196 192 188 187 188 188 190 194 200 205 210 211 207 202 201 201 199 199 199 199 200 204 210 218 226 234 242 251 261 276 289 297 301 305 311 314 316 319 322 320 320 320 323 329 334 331 326 325 325 323 321 320 321 322 321
278 273 268 266 266 265 264 265 268 272 274 272 268 261 254 247 241 235 231 226 223 220 216 213 209 205 201 199 194 188 185 184 182 182 183 185 188 193 199 203 206 205 201 199 198 197 196 196 196 195 198 206 214 221 229 237 245 254 265 278 289 296 302 307 312 315 317 320 321 320 320 321 324 332 336 331 326 326 325 322 321 321 321 322 323
279 277 275 273 271 267 264 262 262 263 267 268 264 258 250 243 237 231 226 220 216 213 210 207 204 201 199 196 190 185 184 183 182 183 183 185 189 194 199 201 200 198 197 197 195 193 192 193 193 194 200 208 217 224 232 239 246 257 269 280 289 297 305 310 313 317 319 320 320 321 320 322 328 334 335 330 327 326 323 321 322 323 323 323 323
282 280 279 278 274 270 265 262 260 260 261 263 261 255 248 241 234 228 222 216 212 209 206 204 202 199 196 193 188 185 184 183 183 184 185 187 192 197 199 198 196 195 194 192 190 189 189 188 190 196 203 211 219 226 233 241 249 260 273 284 291 300 307 312 315 317 318 319 321 321 321 325 332 335 332 329 328 325 322 322 324 325 324 324 324
279 277 276 275 272 269 266 265 263 259 258 258 256 252 246 239 231 225 218 213 209 205 201 198 196 192 189 188 186 185 186 186 186 186 187 191 196 199 197 195 194 192 190 187 186 186 185 185 191 200 206 213 222 228 234 244 254 265 277 286 294 302 309 313 315 317 318 319 321 321 323 328 334 334 332 332 329 324 323 325 326 326 326 325 325
278 276 274 272 268 263 260 260 260 257 253 251 248 245 240 233 226 219 213 207 205 200 195 192 189 185 183 185 186 188 188 188 188 189 191 195 198 197 194 192 189 186 183 182 182 181 183 187 194 202 208 215 224 230 238 249 259 270 280 289 296 302 309 313 316 318 319 320 321 322 324 328 333 334 335 334 327 322 324 328 328 327 327 326 326
279 275 274 271 267 261 256 254 254 252 249 245 241 236 230 223 217 211 207 203 200 196 192 189 185 180 180 185 188 189 190 189 190 192 195 196 195 192 189 187 183 180 180 180 179 180 186 191 196 203 210 218 226 234 243 254 266 277 284 291 297 302 309 315 317 318 320 321 320 322 324 328 333 337 336 330 324 323 326 329 328 327 327 327 326
280 274 271 268 264 259 254 250 248 246 242 236 231 226 221 216 212 207 203 199 195 192 189 186 181 179 182 186 189 190 191 192 193 195 196 194 191 188 185 183 180 178 178 178 179 183 190 194 197 204 212 221 230 240 251 264 276 284 288 293 299 303 309 314 316 318 320 320 319 321 325 330 335 338 333 325 322 325 328 329 328 328 328 328 327
281 272 268 265 260 253 248 243 240 237 232 228 223 217 212 208 204 200 197 194 191 188 185 182 180 181 185 187 189 191 193 194 194 195 193 190 187 183 181 179 178 177 178 179 182 187 192 194 199 207 216 227 238 250 264 275 284 289 292 295 299 304 309 313 315 317 320 319 318 321 326 332 337 336 327 321 322 327 329 328 328 328 328 328 327
291 278 268 261 252 243 237 233 229 225 220 216 212 207 201 197 194 193 191 189 187 185 182 180 181 184 187 189 190 191 192 192 192 191 189 185 182 180 179 178 177 177 179 181 185 189 192 194 200 209 220 233 246 261 273 281 289 293 294 297 300 304 309 312 314 316 320 319 317 319 327 335 336 329 321 319 325 329 329 328 329 330 330 329 329
298 282 262 247 235 227 220 216 212 208 204 200 197 194 191 189 188 187 187 185 184 183 182 182 184 187 189 190 190 189 188 188 187 186 183 181 180 178 178 177 177 178 181 184 187 190 194 197 203 213 225 238 253 267 277 286 292 294 295 298 302 305 308 311 314 317 319 316 314 320 331 336 330 321 318 322 328 329 328 329 330 332 332 331 331
293 267 239 221 211 206 202 198 196 193 191 190 188 186 185 185 185 183 183 182 182 182 183 184 186 188 189 187 185 184 184 184 184 182 180 179 178 177 177 177 179 181 184 187 190 192 196 201 210 222 235 249 262 273 282 290 295 296 299 301 302 304 308 311 313 316 315 311 314 325 334 331 322 317 318 325 330 330 329 330 332 333 334 333 333
301 250 216 199 191 189 187 186 186 185 185 185 184 183 182 182 182 182 182 182 182 182 184 186 187 188 186 184 182 183 183 183 182 180 178 176 176 176 177 178 180 183 186 189 192 196 201 210 222 236 247 259 271 280 288 294 297 300 303 303 302 304 308 309 310 312 311 311 318 329 330 323 317 317 321 327 331 331 331 332 334 335 335 335 335
14 134 171 172 173 176 179 180 181 181 182 183 183 182 182 181 181 181 182 183 184 184 185 186 186 186 185 184 183 183 183 182 179 177 175 175 175 176 178 180 183 186 188 191 195 201 210 221 233 245 257 268 278 287 294 298 302 305 306 305 305 306 307 307 310 313 312 313 320 327 323 318 316 318 322 329 332 331 330 332 335 337 337 337 336